Temperature
21 20 20 20 20 21 21 21 21 20 20 20 20 20 20 19 19 19 19 19 19 19 19 19 18 18 18 18 18 18 18 18 18 18 18 18 17 17 17 17 17 17 17
21 21 20 20 20 21 21 21 21 21 21 20 20 20 20 19 19 19 19 19 19 19 19 19 19 19 19 19 19 19 19 18 18 18 18 17 17 17 17 17 17 17 17
22 21 20 20 21 21 21 21 21 21 21 20 20 20 20 20 20 19 19 19 19 19 19 19 19 19 19 19 19 19 19 18 18 18 18 17 17 17 17 17 17 17 17
22 21 21 20 21 21 21 21 21 21 21 20 20 20 20 20 20 19 19 19 19 19 19 19 19 19 19 19 19 19 18 18 18 18 18 17 17 17 17 17 17 17 17
22 21 21 21 21 21 21 21 21 21 20 20 20 20 20 20 20 19 19 19 19 19 19 19 19 19 19 19 19 18 18 18 18 18 17 17 17 17 18 17 17 17 17
22 21 21 21 21 21 21 21 20 20 20 20 20 20 20 20 19 19 19 19 19 19 19 19 19 19 19 19 18 18 18 18 18 18 17 17 17 17 18 18 18 17 17
22 21 21 21 20 20 20 20 20 20 20 20 20 20 20 19 19 19 19 19 19 19 19 19 19 19 19 19 18 18 18 18 18 18 17 17 17 17 18 18 18 18 18
22 21 21 21 20 20 20 20 20 20 20 20 20 20 20 19 19 19 19 19 19 19 19 19 19 19 19 18 18 18 18 17 17 18 18 17 17 17 17 18 18 18 18
21 21 21 21 20 20 20 20 20 20 20 20 20 19 19 19 19 19 19 19 19 19 19 19 19 19 19 18 18 18 18 18 17 18 18 17 17 17 17 17 18 18 18
21 21 21 20 20 20 20 20 20 20 20 20 19 19 19 19 19 19 19 19 19 19 19 19 19 19 19 18 18 18 18 18 18 18 18 18 17 17 17 17 17 18 18
21 21 21 21 20 20 20 20 20 19 19 19 19 19 19 19 19 19 19 19 19 18 18 18 18 18 18 18 18 18 18 18 18 18 18 18 18 17 17 17 17 18 18
21 21 21 21 20 20 20 20 20 19 19 19 19 19 19 19 19 19 19 19 19 18 18 18 18 18 18 18 18 18 18 18 18 18 18 18 18 18 17 17 17 17 17
22 21 21 21 20 20 20 20 20 19 19 19 19 19 19 19 19 18 19 18 18 18 18 18 18 18 18 18 18 18 18 18 18 18 18 18 18 18 18 17 17 17 17
21 21 21 20 20 20 20 20 20 19 19 19 19 19 19 18 18 19 18 18 18 18 18 18 18 18 17 17 17 17 17 17 17 18 18 18 18 17 18 18 17 17 17
21 21 21 20 20 20 20 20 19 19 19 19 18 18 18 18 18 18 18 18 18 17 17 17 17 17 17 17 17 17 17 17 17 17 18 18 18 18 17 17 18 17 17
20 20 20 20 20 19 19 19 19 18 18 18 18 18 18 18 18 17 18 17 17 17 17 17 17 17 17 17 17 17 17 17 17 17 17 17 18 17 17 17 17 17 17
20 19 19 20 19 19 19 18 18 18 18 17 17 17 17 17 17 17 17 17 17 17 17 17 17 17 16 16 16 16 16 17 17 17 17 17 17 17 17 17 17 17 17
19 19 19 19 19 18 18 18 18 17 18 17 17 17 17 17 17 17 17 16 16 16 16 16 16 16 16 16 16 16 16 16 16 17 17 17 17 17 17 17 17 17 17
19 19 19 18 18 18 18 18 17 17 17 17 17 17 17 16 16 16 16 16 16 16 16 16 16 16 16 16 16 16 16 16 16 16 16 17 17 17 17 17 17 17 17
19 19 19 18 18 18 18 18 17 17 17 17 17 17 16 16 16 16 16 16 15 15 15 15 15 15 15 15 15 15 16 16 16 16 16 16 16 16 17 17 17 17 17
19 19 19 19 18 18 18 18 17 17 17 17 16 16 16 16 16 15 15 15 15 15 15 15 15 15 15 15 15 15 16 16 16 16 16 16 16 16 16 16 16 17 17
19 19 19 18 18 18 18 17 17 17 17 16 16 16 16 15 15 15 15 15 15 15 15 15 14 14 15 14 14 14 14 15 16 16 16 16 16 16 16 16 16 16 17
19 19 19 18 18 18 17 17 17 16 16 16 16 15 15 15 15 14 14 14 14 14 14 14 14 14 14 14 14 13 13 14 14 15 15 15 15 16 16 16 16 16 16
19 18 18 18 18 17 17 16 16 16 15 15 15 15 14 14 14 14 14 14 14 14 14 14 14 13 13 13 13 13 13 13 13 14 14 15 15 15 15 16 16 16 16
19 18 18 18 17 17 16 16 15 15 15 14 14 14 14 13 13 13 13 13 13 13 13 13 13 13 13 13 13 13 13 13 13 13 13 14 15 15 15 15 16 16 16
18 18 18 17 17 16 16 15 15 14 14 14 13 13 13 12 12 12 12 12 12 12 12 12 13 13 13 13 13 13 13 13 13 13 12 13 14 14 15 15 15 16 16
Wind_Speed
8 12 21 21 21 21 21 20 21 21 20 20 19 19 19 18 17 16 15 14 12 11 10 8 7 7 7 8 9 10 11 12 13 13 13 13 14 14 15 16 16 15 18
13 16 21 21 21 21 21 20 20 20 20 19 19 18 18 18 17 16 15 13 12 11 10 9 8 7 8 8 9 10 11 12 12 13 13 13 14 14 15 15 15 14 17
16 16 20 20 21 21 20 20 20 19 19 19 18 18 17 17 16 15 14 13 12 11 10 9 8 7 8 8 9 10 11 11 11 12 11 10 12 14 14 15 15 16 17
15 15 18 20 20 20 20 20 19 19 18 18 17 17 16 16 15 14 13 13 12 11 10 9 8 8 8 8 9 9 10 10 11 10 8 8 10 13 14 15 15 16 16
12 14 18 21 20 20 19 19 18 18 17 17 16 16 15 15 14 13 12 12 11 10 9 9 8 8 8 8 9 9 9 10 10 8 6 6 8 13 15 15 15 15 15
12 13 17 20 19 19 19 18 18 17 17 16 16 15 14 14 13 12 11 10 10 9 9 8 8 8 8 8 8 8 9 9 8 6 5 5 7 13 14 15 15 15 15
12 11 16 19 19 18 18 17 17 16 16 15 15 14 14 13 13 12 11 10 10 9 8 8 8 8 8 8 8 8 8 9 6 5 5 6 8 12 14 15 15 15 15
12 10 14 18 18 17 17 17 16 15 15 15 14 14 13 13 12 12 11 10 10 10 9 9 9 9 8 8 8 8 8 8 7 6 6 7 10 12 14 15 15 16 16
10 8 8 13 15 16 16 16 15 15 14 14 14 13 13 12 12 12 11 11 11 10 10 10 10 10 10 9 9 9 9 9 5 5 7 8 12 14 15 15 15 16 16
8 7 5 7 9 11 12 14 14 14 14 13 13 13 12 12 12 12 12 12 12 11 11 11 11 11 11 11 11 10 10 10 7 6 6 8 13 16 16 17 17 17 17
9 6 6 6 6 6 7 10 12 12 13 13 12 13 12 11 10 11 11 12 13 12 12 12 13 13 12 12 12 12 11 8 7 7 7 9 13 16 18 19 19 19 19
10 8 6 6 6 6 6 6 6 7 8 9 8 9 9 8 8 9 10 12 13 13 13 14 14 14 13 11 12 13 10 10 9 9 10 13 14 17 20 21 21 21 21
8 8 6 6 5 5 3 3 4 4 5 6 7 7 6 6 6 7 6 8 9 10 9 10 12 11 11 10 11 11 11 11 10 10 12 15 16 18 20 22 23 24 23
6 5 5 5 4 3 2 2 4 4 4 5 6 7 6 4 4 5 4 5 5 5 6 6 7 10 11 12 12 12 13 12 11 11 13 17 18 19 20 23 25 25 25
4 4 4 6 6 5 3 2 2 2 2 4 4 5 7 4 4 4 3 3 4 5 5 4 5 6 7 9 11 11 11 13 14 14 13 17 19 20 21 23 25 26 27
5 4 3 4 5 4 2 1 1 1 2 3 4 5 6 5 3 2 2 2 3 5 5 5 5 5 6 6 7 9 11 13 14 15 15 16 19 20 21 22 25 27 28
5 4 3 4 4 4 3 2 1 1 2 2 2 3 4 5 4 3 3 3 3 4 5 4 4 4 4 5 7 8 8 11 12 14 16 15 16 19 21 23 24 27 29
5 5 4 4 4 4 3 2 2 1 1 1 2 2 4 5 5 3 3 3 3 4 3 3 3 3 4 5 6 7 7 7 11 13 15 15 15 15 18 22 24 26 29
5 5 5 4 4 4 4 3 2 1 1 1 1 1 3 4 4 3 3 3 3 2 2 2 2 2 3 5 6 7 7 8 9 11 12 14 15 15 15 18 23 25 27
4 5 5 5 5 4 3 2 1 1 0 0 0 1 2 2 3 2 2 2 2 1 2 2 3 2 3 4 6 7 7 8 8 10 11 10 12 16 16 17 17 20 25
3 4 4 4 4 3 2 2 1 1 0 0 1 1 1 1 1 2 2 2 2 2 3 3 2 3 3 2 3 5 6 8 9 9 9 9 10 13 15 16 16 16 16
3 3 3 4 3 3 2 2 1 1 1 1 1 2 2 2 2 2 3 3 3 3 3 3 3 2 2 2 2 2 4 4 4 7 7 9 10 8 11 14 15 16 16
5 4 4 4 3 2 2 2 2 2 2 2 2 2 3 4 4 4 4 3 4 3 4 5 4 4 3 2 3 3 2 3 4 3 4 6 7 7 9 9 13 15 16
5 4 3 2 2 2 2 2 2 2 2 2 2 2 4 5 5 5 4 4 4 4 5 6 5 5 4 4 3 4 5 4 3 4 3 3 5 7 8 9 9 11 15
2 2 2 2 1 1 2 2 2 2 2 2 2 4 4 5 5 5 4 4 4 4 5 6 5 5 4 4 4 3 3 4 5 5 5 4 3 4 6 7 7 7 12
1 1 1 2 1 0 1 1 2 3 3 3 4 4 4 4 5 6 5 4 5 4 5 6 5 6 5 5 5 4 3 3 3 4 5 5 5 4 4 5 6 6 9
Wind_Direction
158 160 157 153 145 139 134 130 128 128 129 132 136 141 147 150 152 154 156 158 158 157 155 148 137 128 122 121 119 119 118 120 122 123 124 124 124 123 123 122 120 122 123
148 157 157 154 147 142 138 135 133 132 132 134 137 140 145 150 153 155 158 160 162 162 159 152 144 136 132 129 128 127 127 128 129 129 129 127 127 127 126 125 125 129 127
145 155 156 154 149 144 141 139 138 137 137 138 140 143 146 151 155 158 160 163 165 165 162 157 151 145 141 138 136 135 136 137 136 131 125 126 131 131 131 131 132 132 131
145 151 155 155 151 147 145 143 142 142 142 143 145 148 151 155 158 162 165 167 169 169 167 164 161 156 151 148 146 145 145 145 138 128 120 130 139 139 139 138 137 136 135
141 147 157 157 153 150 148 147 147 147 148 149 151 154 157 161 164 167 169 172 173 174 174 173 170 166 162 159 157 156 154 153 145 132 128 131 143 149 146 146 144 142 141
139 145 159 158 156 154 152 152 152 153 154 156 159 162 165 168 171 173 175 177 180 183 184 183 180 177 174 171 169 168 167 166 149 136 140 140 150 157 155 153 151 150 148
139 145 159 160 160 158 157 157 158 159 161 164 166 170 173 176 179 181 184 188 191 194 195 195 193 189 187 185 184 183 184 184 154 153 163 167 172 170 165 164 160 158 157
142 143 158 162 164 164 163 164 165 168 170 172 175 179 182 184 188 191 195 199 204 206 206 207 206 203 201 199 198 198 201 203 187 183 184 189 192 186 179 175 171 167 165
137 136 146 160 167 169 170 171 173 176 179 182 185 188 190 193 197 201 204 210 215 217 216 217 216 214 213 212 212 211 213 219 202 197 203 198 200 198 192 186 182 177 174
134 130 125 141 154 165 174 179 182 184 187 190 194 196 200 204 207 210 213 219 225 226 226 227 227 225 223 221 222 222 222 225 217 214 216 210 206 205 203 196 192 189 184
148 139 133 128 136 151 171 189 193 196 198 200 204 206 208 212 216 219 222 227 234 236 236 236 237 235 232 231 230 229 228 223 216 220 220 222 217 214 211 205 200 197 194
164 167 160 149 143 149 179 195 202 205 206 209 212 217 214 211 219 226 231 235 239 242 243 243 244 243 239 235 235 237 232 222 220 226 227 227 225 223 219 213 207 203 201
167 167 171 164 156 161 169 176 196 205 207 217 221 222 220 215 223 231 234 246 250 250 248 250 248 243 237 231 228 230 232 228 228 231 233 231 229 228 225 219 212 208 205
145 154 164 166 165 169 172 188 201 210 210 217 221 218 215 219 221 229 230 239 251 258 254 247 243 241 235 234 232 231 232 234 233 233 234 236 233 231 230 225 218 214 209
133 147 162 170 173 174 179 219 206 222 234 236 233 229 218 221 225 224 230 236 245 249 250 254 254 252 244 239 237 237 237 236 236 234 235 235 234 232 233 230 223 219 215
140 147 152 154 158 159 168 174 181 232 243 236 226 229 219 218 221 227 238 235 240 247 253 253 252 252 251 244 244 243 243 243 240 237 236 237 236 233 234 234 229 222 219
126 129 138 129 126 145 160 180 184 198 233 240 236 237 223 210 205 206 219 232 238 245 248 250 255 256 260 255 254 253 249 245 243 240 239 236 235 236 237 237 234 228 222
123 126 128 131 136 142 146 147 131 173 187 221 218 211 211 210 204 203 215 232 241 244 246 250 251 259 262 263 264 264 258 251 249 245 241 237 234 235 237 238 236 232 226
124 126 126 123 135 143 147 141 143 162 176 202 214 235 233 230 222 217 227 237 238 240 251 268 258 247 264 271 272 266 258 253 251 248 241 238 235 233 232 236 237 235 231
130 132 140 144 148 142 130 117 104 92 30 85 194 261 254 239 224 213 237 252 251 247 250 245 254 250 256 267 277 276 265 256 250 246 243 239 236 235 232 232 235 237 233
155 158 162 155 157 143 130 136 143 195 255 294 274 280 288 288 271 247 257 261 251 244 248 246 246 255 257 244 273 287 278 256 247 245 240 237 237 235 231 230 229 229 231
211 193 179 175 175 178 167 156 160 155 190 254 318 333 336 332 307 273 258 262 256 252 262 248 223 238 254 223 231 292 305 304 269 246 236 234 239 235 233 232 227 223 223
223 214 199 197 193 184 153 107 83 61 29 359 337 323 322 321 309 294 274 261 256 239 249 245 223 219 240 250 219 226 264 286 312 291 248 240 241 238 238 234 226 221 220
227 215 206 200 201 184 155 155 161 174 224 247 262 288 307 313 308 298 282 270 259 246 247 250 232 221 219 241 247 233 235 250 276 305 306 269 256 248 243 240 232 221 219
232 207 196 182 209 211 181 179 177 206 236 269 288 298 304 306 303 296 285 275 267 256 250 249 242 226 219 224 226 232 242 248 245 259 286 300 293 262 249 240 233 226 221
199 165 162 168 244 291 219 205 207 237 261 282 288 291 293 295 297 293 286 276 271 262 254 249 243 236 228 229 230 225 225 232 237 243 265 287 292 284 266 244 233 229 224
Height
1506 1510 1514 1517 1520 1523 1525 1527 1529 1531 1533 1535 1537 1539 1541 1542 1544 1545 1546 1546 1547 1548 1549 1549 1550 1551 1551 1552 1552 1553 1553 1554 1554 1555 1555 1556 1557 1558 1559 1560 1561 1562 1563
1505 1510 1514 1518 1521 1524 1526 1528 1531 1533 1535 1536 1538 1540 1542 1543 1544 1546 1547 1548 1548 1549 1550 1551 1551 1552 1552 1553 1553 1554 1554 1555 1556 1556 1557 1558 1559 1560 1561 1562 1563 1564 1565
1506 1510 1515 1519 1522 1525 1527 1529 1532 1534 1536 1537 1539 1541 1542 1544 1545 1546 1547 1548 1549 1550 1551 1552 1552 1553 1553 1554 1554 1555 1556 1556 1557 1558 1559 1559 1560 1561 1563 1564 1565 1566 1568
1507 1511 1516 1520 1523 1526 1528 1531 1533 1535 1536 1538 1540 1541 1543 1544 1546 1547 1548 1549 1550 1551 1552 1553 1553 1554 1554 1555 1555 1556 1557 1558 1559 1559 1560 1561 1562 1563 1564 1566 1567 1568 1570
1509 1513 1517 1521 1524 1527 1529 1532 1534 1535 1537 1539 1540 1542 1543 1545 1546 1547 1549 1550 1551 1552 1553 1553 1554 1555 1555 1556 1556 1557 1558 1559 1560 1561 1562 1563 1564 1565 1566 1567 1569 1570 1571
1510 1515 1518 1522 1525 1528 1531 1533 1534 1536 1538 1539 1541 1542 1544 1545 1547 1548 1549 1550 1551 1552 1553 1554 1555 1555 1556 1557 1558 1558 1559 1560 1561 1562 1563 1564 1565 1566 1567 1569 1570 1571 1573
1511 1516 1520 1523 1526 1529 1532 1534 1535 1537 1538 1540 1541 1543 1544 1545 1547 1548 1549 1550 1551 1552 1553 1554 1555 1556 1557 1558 1558 1559 1560 1561 1562 1563 1564 1565 1566 1567 1568 1570 1571 1572 1574
1513 1517 1521 1524 1527 1530 1532 1534 1536 1538 1539 1540 1541 1543 1544 1545 1546 1548 1549 1550 1551 1552 1553 1554 1555 1556 1557 1558 1559 1560 1561 1562 1563 1564 1564 1565 1566 1567 1569 1570 1572 1573 1575
1515 1518 1521 1524 1528 1531 1533 1535 1537 1538 1539 1541 1542 1543 1544 1545 1546 1547 1548 1549 1551 1552 1553 1554 1555 1556 1557 1557 1558 1559 1560 1561 1562 1564 1565 1565 1566 1567 1569 1570 1572 1573 1575
1516 1519 1522 1525 1528 1531 1533 1535 1537 1538 1539 1540 1542 1543 1544 1545 1545 1546 1547 1548 1549 1551 1552 1553 1554 1555 1556 1557 1558 1559 1560 1560 1561 1563 1564 1565 1566 1567 1568 1570 1571 1573 1575
1517 1519 1522 1525 1529 1531 1534 1536 1537 1538 1539 1540 1541 1542 1543 1543 1544 1545 1546 1547 1548 1549 1550 1551 1552 1553 1554 1555 1556 1557 1558 1559 1560 1561 1562 1564 1565 1566 1567 1569 1570 1572 1574
1517 1519 1522 1525 1528 1531 1533 1535 1536 1538 1538 1539 1540 1541 1542 1542 1543 1544 1544 1545 1546 1547 1548 1549 1550 1551 1552 1552 1553 1555 1555 1556 1557 1558 1560 1561 1563 1564 1566 1567 1569 1570 1572
1517 1520 1523 1525 1528 1529 1531 1533 1535 1536 1537 1537 1539 1540 1540 1541 1541 1542 1542 1543 1544 1544 1545 1546 1547 1548 1548 1549 1550 1551 1552 1553 1554 1555 1556 1558 1560 1561 1563 1565 1566 1568 1570
1518 1520 1522 1525 1527 1528 1530 1531 1532 1534 1535 1536 1537 1538 1538 1539 1539 1539 1540 1541 1541 1542 1542 1543 1544 1544 1545 1545 1546 1547 1548 1549 1550 1551 1552 1554 1556 1558 1559 1561 1563 1565 1567
1519 1521 1522 1524 1525 1527 1528 1530 1531 1533 1534 1535 1536 1536 1536 1537 1537 1537 1537 1538 1538 1539 1539 1539 1539 1540 1540 1541 1541 1542 1543 1544 1545 1546 1548 1549 1551 1553 1555 1557 1559 1561 1563
1519 1520 1522 1523 1525 1526 1528 1529 1530 1531 1532 1532 1532 1533 1533 1533 1534 1534 1535 1535 1535 1535 1535 1535 1536 1535 1535 1535 1536 1537 1537 1538 1539 1541 1542 1544 1545 1547 1549 1551 1553 1556 1558
1519 1520 1521 1522 1524 1525 1526 1527 1528 1529 1530 1530 1530 1530 1530 1530 1531 1531 1531 1531 1532 1531 1532 1532 1531 1531 1530 1531 1530 1531 1531 1532 1533 1534 1536 1537 1539 1541 1543 1545 1547 1550 1553
1519 1520 1521 1522 1523 1524 1526 1526 1527 1527 1527 1527 1528 1528 1528 1528 1528 1528 1528 1528 1529 1528 1528 1528 1527 1526 1525 1525 1525 1525 1525 1525 1526 1527 1528 1530 1531 1533 1535 1538 1541 1544 1547
1520 1520 1521 1522 1523 1524 1525 1525 1526 1526 1526 1526 1526 1526 1526 1526 1526 1526 1525 1525 1525 1525 1524 1524 1523 1522 1521 1520 1520 1519 1519 1519 1519 1520 1520 1522 1523 1525 1528 1531 1534 1537 1540
1520 1521 1521 1522 1523 1523 1524 1525 1525 1525 1525 1524 1524 1524 1524 1524 1523 1522 1522 1522 1522 1521 1520 1520 1519 1518 1517 1516 1515 1514 1513 1513 1512 1512 1513 1514 1516 1518 1520 1523 1527 1530 1533
1521 1521 1522 1522 1522 1523 1524 1524 1524 1524 1523 1523 1523 1522 1522 1521 1520 1520 1519 1519 1518 1517 1517 1516 1515 1514 1514 1513 1511 1509 1508 1507 1506 1506 1506 1507 1509 1511 1513 1516 1519 1522 1526
1521 1522 1522 1522 1522 1523 1523 1523 1523 1522 1521 1521 1520 1520 1519 1518 1517 1516 1516 1515 1514 1514 1513 1512 1512 1511 1510 1510 1508 1506 1504 1503 1501 1501 1500 1501 1502 1504 1506 1509 1512 1515 1519
1520 1521 1522 1522 1522 1522 1521 1521 1521 1520 1519 1519 1518 1517 1516 1515 1514 1513 1512 1511 1510 1509 1509 1508 1508 1507 1507 1506 1506 1505 1503 1500 1498 1497 1496 1496 1497 1499 1500 1502 1505 1508 1512
1520 1520 1520 1520 1520 1520 1520 1519 1518 1518 1517 1516 1515 1514 1513 1512 1510 1509 1507 1506 1505 1505 1504 1504 1503 1503 1503 1502 1502 1502 1501 1500 1498 1495 1494 1493 1494 1494 1495 1496 1499 1501 1505
1518 1519 1519 1519 1519 1518 1517 1517 1516 1515 1514 1513 1511 1510 1509 1507 1506 1504 1503 1502 1501 1500 1499 1499 1499 1499 1498 1498 1498 1498 1497 1496 1495 1494 1491 1490 1490 1490 1491 1492 1493 1495 1498
1517 1517 1517 1517 1516 1516 1515 1514 1513 1512 1510 1509 1507 1506 1504 1503 1501 1500 1499 1497 1496 1495 1495 1494 1494 1494 1494 1494 1494 1494 1493 1493 1492 1491 1489 1487 1486 1486 1487 1487 1488 1490 1493